Location: Nied?wied?
(53.3665°N, 14.8184°E)
Time: 21:23:53
(UTC+00:00)

Cosmos 1666 Rocket - Pass Details

Date: 03 March 2021
Orbit: 605 x 632 km, 82.5° (Epoch: 12 April)

Event Time Altitude Azimuth Distance (km) Brightness Sun altitude
Rises 17:21:56 0° 182° (S) 2,859 7.0 -6.6°
Reaches altitude 10° 17:24:09 10° 180° (S) 1,957 6.2 -7.0°
Maximum altitude 17:28:26 68° 98° (E) 659 3.5 -7.6°
Drops below altitude 10° 17:32:45 10° 15° (NNE) 1,967 6.0 -8.3°
Sets 17:34:59 0° 13° (NNE) 2,876 6.9 -8.6°
